Regional Weather Roundup
Issued by NWS

Home | Current Version | Previous Version | Graphics & Text | Print | Product List | Glossary On
Versions: 1 2 3 4 5 6 7 8 9 10 11 12 13 14 15 16 17 18 19 20 21 22 23 24 25 26 27 28 29 30 31 32 33 34 35 36 37 38 39 40 41 42 43 44 45 46 47 48 49 50
000
ASUS43 KMPX 240810
RWRMN
WEATHER ROUNDUP FOR MINNESOTA
NATIONAL WEATHER SERVICE TWIN CITIES/CHANHASSEN MN
300 AM CDT WED MAY 24 2017


NOTE: "FAIR" INDICATES FEW OR NO CLOUDS BELOW 12,000 FEET WITH NO
SIGNIFICANT WEATHER AND/OR OBSTRUCTIONS TO VISIBILITY. N/A MEANS
CURRENT SKY AND/OR WEATHER CONDITIONS ARE NOT AVAILABLE.

MNZ060>063-068>070-240900-
   Twin Cities Metro

CITY           SKY/WX    TMP DP  RH WIND       PRES   REMARKS
TWIN CITIES    PTCLDY    48  42  80 N7        29.80S
ST PAUL        PTCLDY    48  44  86 N7        29.81S
CRYSTAL        CLOUDY    49  43  80 N9        29.79F
BLAINE         CLOUDY    50  46  87 MISG      29.80S
LAKEVILLE      PTCLDY    46  45  93 N12       29.78F
EDEN PRAIRIE   CLEAR     48  43  82 N8        29.79S
SOUTH ST PAUL  PTCLDY    48  43  82 N7        29.79F
LAKE ELMO      FAIR      46  43  87 N8        29.80F
$$
MNZ001>005-007-008-013>017-022>024-027-028-240900-
   Northwest Minnesota

CITY           SKY/WX    TMP DP  RH WIND       PRES   REMARKS
BEMIDJI          N/A     34  33  96 CALM      29.88S FOG
HALLOCK        PTCLDY    43  39  87 S6        29.88F
ROSEAU         CLEAR     39  36  87 CALM      29.90F
WARROAD        CLEAR     43  37  81 CALM      29.90F
THIEF RVR FALL CLEAR     44  42  93 N5        29.90F
CROOKSTON      CLEAR     45  43  93 CALM      29.90F
FOSSTON        CLEAR     36  36 100 CALM      29.90S
DETROIT LAKES  CLEAR     45  43  93 N3        29.89S
MOORHEAD       CLEAR     39  39 100 CALM      29.89F
PARK RAPIDS    CLOUDY    47  40  76 N5        29.86F
MAHNOMEN       FAIR      37  37  99 NE5       29.88F
$$
MNZ006-009>011-018-025>026-240900-
   North Central Minnesota

CITY           SKY/WX    TMP DP  RH WIND       PRES   REMARKS
BAUDETTE       FOG       35  35 100 CALM      29.89F VSB 1/4
FLAG ISLAND    CLEAR     52  41  66 SW5       29.88F
INTL FALLS     CLEAR     33  30  88 CALM      29.88F
WASKISH        CLEAR     36  36 100 CALM      29.89F
BIG FORK       CLEAR     34  32  93 CALM      29.88F
LONGVILLE      PTCLDY    45  43  93 CALM      29.85F
GRAND RAPIDS   CLEAR     43  41  93 CALM      29.88F
CRANE LAKE     CLEAR     30  30 100 CALM      29.90F
COOK           CLEAR     34  34 100 CALM      29.88S
WALKER         FAIR      40  40  97 CALM      29.87S
$$
MNZ012-019>021-037-240900-
   Northeast Minnesota

CITY           SKY/WX    TMP DP  RH WIND       PRES   REMARKS
DULUTH         CLOUDY    47  46  97 N7        29.84S
ELY            MOCLDY    37  37 100 CALM      29.87S
HIBBING        CLEAR     37  37 100 CALM      29.86F
EVELETH        CLEAR     39  37  93 CALM      29.87F FOG
DULUTH HARBOR  CLOUDY    46  45  93 CALM      29.86S
TWO HARBORS    CLOUDY    50  45  81 CALM      29.83S
SILVER BAY     PTCLDY    46  45  93 CALM      29.83F
GRAND MARAIS     N/A     50  41  71 N8        29.85F
G MARAIS ARPRT CLOUDY    41  36  81 N5        29.86F
$$
MNZ029>031-032-039>041-046>048-054>057-064-240900-
   West Central Minnesota

CITY           SKY/WX    TMP DP  RH WIND       PRES   REMARKS
FERGUS FALLS   PTCLDY    43  43 100 CALM      29.86F
WHEATON        PTCLDY    41  39  93 W3        29.89S FOG
MORRIS         CLEAR     43  41  93 NW3       29.85S
ALEXANDRIA     CLOUDY    49  45  86 NE9       29.86S
ELBOW LAKE     FAIR      43  43  99 N5        29.86S
WADENA         CLOUDY    48  45  87 N3        29.86S
GLENWOOD       CLEAR     46  45  93 N8        29.85R
APPLETON       CLEAR     45  41  87 N3        29.85S
BENSON         CLEAR     41  39  93 N5        29.86S
ORTONVILLE     CLEAR     45  41  87 CALM      29.85F
MADISON        CLEAR     46  46 100 NW5       29.85S
WILLMAR        FAIR      48  46  93 NE5       29.83F
$$
MNZ033>034-036-042>043-049>051-058-059-240900-
   Central Minnesota

CITY           SKY/WX    TMP DP  RH WIND       PRES   REMARKS
ST CLOUD       MOCLDY    48  45  89 N6        29.82F
SAUK CENTRE    FAIR      47  46  95 NE6       29.84F
PAYNESVILLE    MOCLDY    48  48 100 NE5       29.83F
AITKIN         CLOUDY    46  45  93 CALM      29.84F
PINE RIVER     CLOUDY    48  45  87 CALM      29.89S
BRAINERD       CLOUDY    48  47  96 NE5       29.85F
STAPLES        CLOUDY    48  43  81 CALM      29.86S
LONG PRAIRIE   CLOUDY    46  45  93 N5        29.85S
LITTLE FALLS   CLOUDY    46  45  93 CALM      29.84F
LITCHFIELD     PTCLDY    50  46  87 NE7       29.82F
BUFFALO        CLOUDY    49  44  83 N5        29.82F
MAPLE LAKE     MOCLDY    49  46  90 N7        29.83S
HUTCHINSON     PTCLDY    49  46  87 N8        29.82F
$$
MNZ037-044-045-052-053-240900-
   East Central Minnesota

CITY           SKY/WX    TMP DP  RH WIND       PRES   REMARKS
PRINCETON      CLOUDY    48  45  87 N7        29.83F
MORA           CLOUDY    45  41  87 CALM      29.85S
CAMBRIDGE      CLOUDY    50  43  76 N5        29.81S
RUSH CITY      CLOUDY    46  43  90 N6        29.83S
MOOSE LAKE     CLOUDY    46  43  87 N5        29.83S
HINCKLEY       FAIR      45  45 100 N7        29.83F
CLOQUET        CLOUDY    46  45  93 N3        29.85S
MCGREGOR       MOCLDY    46  45  93 NW3       29.85F
$$
MNZ071>073-080-081-089-090-097-098-240900-
   Southwest Minnesota

CITY           SKY/WX    TMP DP  RH WIND       PRES   REMARKS
MONTEVIDEO     CLEAR     45  45 100 N7        29.84S
CANBY          MOCLDY    47  46  95 CALM      29.86F
MARSHALL       CLEAR     44  44 100 NW7       29.84S
REDWOOD FALLS  CLEAR     48  44  86 N5        29.81F
OLIVIA         CLEAR     46  45  93 N7        29.81S
PIPESTONE      CLEAR     46  41  81 N3        29.82F
WINDOM         CLEAR     46  45  93 N9        29.79F
WORTHINGTON    CLEAR     45  43  93 N8        29.80F
JACKSON        CLEAR     45  43  93 CALM      29.79S
TRACY          CLEAR     47  46  97 NW7       29.82F
SLAYTON        CLEAR     43  42  97 NW7       29.82F
$$
MNZ065>067-074>077-082>085-091>093-240900-
   South Central Minnesota

CITY           SKY/WX    TMP DP  RH WIND       PRES   REMARKS
MANKATO        CLEAR     48  45  89 N9        29.78F
NEW ULM        CLEAR     46  43  87 N7        29.79F
ST JAMES       CLEAR     46  45  93 N9        29.80S
FAIRMONT       PTCLDY    50  45  83 N12       29.77F
GLENCOE        CLEAR     48  47  94 N7        29.80S
FARIBAULT      CLOUDY    48  45  87 N9        29.77F
OWATONNA       CLOUDY    48  45  87 N13       29.76F
WASECA         CLOUDY    50  45  81 N10       29.77F
ALBERT LEA     CLOUDY    52  48  87 N12       29.75S
$$
MNZ078>079-086>088-094>096-240900-
   Southeast Minnesota

CITY           SKY/WX    TMP DP  RH WIND       PRES   REMARKS
ROCHESTER      CLOUDY    48  47  96 N13       29.74F
RED WING       CLOUDY    50  43  76 NE6       29.76S
STANTON        CLOUDY    49  45  84 NE12      29.76F
DODGE CENTER   CLOUDY    48  45  87 N8        29.75S
WINONA         CLOUDY    54  48  82 NE7       29.74S
AUSTIN         PTCLDY    48  45  87 N7        29.73S
PRESTON        CLOUDY    49  46  91 NE9       29.72F
$$
ABBREVIATIONS USED IN REMARKS
   TC - TEMPERATURES IN CELSIUS
  WCI - WIND CHILL INDEX
   HX - HEAT INDEX
  VSB - VISIBILITY
$$




USA.gov is the U.S. government's official web portal to all federal, state and local government web resources and services.